• In Germany
  • List of Countries
  • For 7 days
  • Water Temperature
  • Satellite Maps
  • Weather Map
  • Weather Widgets
  • user-avatar
    Login

    Hourly Weather Kalat

    Today, 18 January, Thursday

    Time Temperature Precipitation Wind Pressure Humidity
    00:00 -23°C° 0 mm 4 mps 466 mmHg 84%
    01:00 -24°C° 0 mm 4 mps 466 mmHg 82%
    02:00 -24°C° 0 mm 4 mps 466 mmHg 81%
    03:00 -24°C° 0 mm 4 mps 466 mmHg 78%
    04:00 -24°C° 0 mm 4 mps 466 mmHg 76%
    05:00 -24°C° 0 mm 4 mps 466 mmHg 72%
    06:00 -24°C° 0 mm 4 mps 466 mmHg 72%
    07:00 -23°C° 0 mm 4 mps 467 mmHg 71%
    08:00 -22°C° 0 mm 4 mps 467 mmHg 71%
    09:00 -19°C° 0 mm 4 mps 469 mmHg 70%
    10:00 -16°C° 0 mm 3 mps 470 mmHg 69%
    11:00 -13°C° 0 mm 3 mps 471 mmHg 68%
    12:00 -13°C° 0 mm 3 mps 471 mmHg 67%
    13:00 -12°C° 0 mm 3 mps 472 mmHg 67%
    14:00 -10°C° 0 mm 3 mps 472 mmHg 66%
    15:00 -13°C° 0 mm 3 mps 471 mmHg 70%
    16:00 -14°C° 0 mm 3 mps 469 mmHg 74%
    17:00 -15°C° 0 mm 3 mps 468 mmHg 77%
    18:00 -16°C° 0 mm 3 mps 468 mmHg 76%
    19:00 -17°C° 0 mm 3 mps 468 mmHg 76%
    20:00 -19°C° 0 mm 4 mps 468 mmHg 75%
    21:00 -19°C° 0 mm 4 mps 468 mmHg 72%
    22:00 -19°C° 0 mm 4 mps 468 mmHg 69%
    23:00 -19°C° 0 mm 4 mps 468 mmHg 65%

    Tomorrow, 19 January, Friday

    Time Temperature Precipitation Wind Pressure Humidity
    00:00 -19°C° 0 mm 4 mps 468 mmHg 64%
    01:00 -19°C° 0 mm 4 mps 468 mmHg 63%
    02:00 -19°C° 0 mm 4 mps 467 mmHg 62%
    03:00 -19°C° 0 mm 4 mps 467 mmHg 62%
    04:00 -19°C° 0 mm 4 mps 467 mmHg 62%
    05:00 -19°C° 0 mm 4 mps 467 mmHg 62%
    06:00 -18°C° 0 mm 3 mps 467 mmHg 62%
    07:00 -18°C° 0 mm 3 mps 468 mmHg 63%
    08:00 -18°C° 0 mm 3 mps 468 mmHg 63%
    09:00 -16°C° 0 mm 3 mps 469 mmHg 61%
    10:00 -13°C° 0 mm 2 mps 471 mmHg 59%
    11:00 -10°C° 0 mm 2 mps 472 mmHg 58%
    12:00 -10°C° 0 mm 2 mps 472 mmHg 57%
    13:00 -9°C° 0 mm 2 mps 472 mmHg 56%
    14:00 -9°C° 0 mm 2 mps 473 mmHg 55%
    15:00 -12°C° 0 mm 2 mps 471 mmHg 59%
    16:00 -11°C° 0 mm 1 mps 470 mmHg 63%
    17:00 -13°C° 0 mm 1 mps 469 mmHg 67%
    18:00 -16°C° 0 mm 2 mps 469 mmHg 65%
    19:00 -17°C° 0 mm 2 mps 469 mmHg 62%
    20:00 -19°C° 0 mm 3 mps 469 mmHg 60%
    21:00 -19°C° 0 mm 3 mps 469 mmHg 56%
    22:00 -19°C° 0 mm 3 mps 469 mmHg 53%
    23:00 -19°C° 0 mm 3 mps 469 mmHg 49%

    Day after tomorrow, 20 January, Saturday

    Time Temperature Precipitation Wind Pressure Humidity
    00:00 -19°C° 0 mm 3 mps 469 mmHg 45%
    01:00 -18°C° 0 mm 3 mps 469 mmHg 42%
    02:00 -19°C° 0 mm 4 mps 469 mmHg 38%
    03:00 -19°C° 0 mm 4 mps 469 mmHg 34%
    04:00 -18°C° 0 mm 3 mps 469 mmHg 30%
    05:00 -18°C° 0 mm 3 mps 469 mmHg 26%
    06:00 -17°C° 0 mm 3 mps 469 mmHg 24%
    07:00 -17°C° 0 mm 3 mps 469 mmHg 22%
    08:00 -16°C° 0 mm 3 mps 469 mmHg 20%
    09:00 -14°C° 0 mm 3 mps 471 mmHg 28%
    10:00 -10°C° 0 mm 3 mps 473 mmHg 36%
    11:00 -6°C° 0 mm 2 mps 475 mmHg 44%
    12:00 -5°C° 0 mm 2 mps 475 mmHg 46%
    13:00 -2°C° 0 mm 1 mps 475 mmHg 47%
    14:00 -1°C° 0 mm 1 mps 475 mmHg 49%
    15:00 -3°C° 0 mm 1 mps 474 mmHg 47%
    16:00 -7°C° 0 mm 2 mps 472 mmHg 46%
    17:00 -9°C° 0 mm 2 mps 470 mmHg 44%
    18:00 -12°C° 0 mm 3 mps 470 mmHg 39%
    19:00 -13°C° 0 mm 3 mps 469 mmHg 34%
    20:00 -15°C° 0 mm 4 mps 469 mmHg 29%
    21:00 -15°C° 0 mm 4 mps 469 mmHg 26%
    22:00 -16°C° 0 mm 4 mps 469 mmHg 22%
    23:00 -16°C° 0 mm 4 mps 468 mmHg 19%

    21 January, Sunday

    Time Temperature Precipitation Wind Pressure Humidity
    00:00 -16°C° 0 mm 4 mps 468 mmHg 18%
    01:00 -16°C° 0 mm 4 mps 468 mmHg 17%
    02:00 -16°C° 0 mm 4 mps 468 mmHg 16%
    03:00 -16°C° 0 mm 4 mps 468 mmHg 16%
    04:00 -16°C° 0 mm 4 mps 468 mmHg 15%
    05:00 -16°C° 0 mm 4 mps 467 mmHg 15%
    06:00 -16°C° 0 mm 4 mps 468 mmHg 15%
    07:00 -16°C° 0 mm 4 mps 468 mmHg 16%
    08:00 -16°C° 0 mm 4 mps 468 mmHg 16%
    09:00 -14°C° 0 mm 4 mps 470 mmHg 27%
    10:00 -9°C° 0 mm 3 mps 471 mmHg 38%
    11:00 -7°C° 0 mm 3 mps 473 mmHg 49%
    12:00 -6°C° 0 mm 3 mps 473 mmHg 50%
    13:00 -6°C° 0 mm 3 mps 473 mmHg 51%
    14:00 -5°C° 0 mm 3 mps 473 mmHg 52%
    15:00 -7°C° 0 mm 3 mps 472 mmHg 52%
    16:00 -9°C° 0 mm 3 mps 470 mmHg 52%
    17:00 -12°C° 0 mm 3 mps 469 mmHg 52%
    18:00 -14°C° 0 mm 3 mps 468 mmHg 48%
    19:00 -16°C° 0 mm 4 mps 468 mmHg 43%
    20:00 -17°C° 0 mm 4 mps 467 mmHg 39%
    21:00 -17°C° 0 mm 4 mps 467 mmHg 36%
    22:00 -18°C° 0 mm 4 mps 467 mmHg 33%
    23:00 -18°C° 0 mm 4 mps 467 mmHg 31%

    22 January, Monday

    Time Temperature Precipitation Wind Pressure Humidity
    00:00 -18°C° 0 mm 4 mps 467 mmHg 30%
    01:00 -18°C° 0 mm 4 mps 467 mmHg 29%
    02:00 -18°C° 0 mm 4 mps 467 mmHg 28%
    03:00 -18°C° 0 mm 4 mps 467 mmHg 28%
    04:00 -19°C° 0 mm 4 mps 467 mmHg 29%
    05:00 -19°C° 0 mm 4 mps 466 mmHg 29%
    06:00 -19°C° 0 mm 4 mps 467 mmHg 29%
    07:00 -19°C° 0 mm 4 mps 467 mmHg 29%
    08:00 -18°C° 0 mm 4 mps 467 mmHg 29%
    09:00 -16°C° 0 mm 4 mps 469 mmHg 36%
    10:00 -12°C° 0 mm 3 mps 470 mmHg 43%
    11:00 -9°C° 0 mm 3 mps 472 mmHg 50%
    12:00 -8°C° 0 mm 3 mps 472 mmHg 49%
    13:00 -8°C° 0 mm 3 mps 471 mmHg 48%
    14:00 -6°C° 0 mm 2 mps 471 mmHg 48%
    15:00 -8°C° 0 mm 2 mps 470 mmHg 50%
    16:00 -10°C° 0 mm 2 mps 469 mmHg 52%
    17:00 -13°C° 0 mm 2 mps 467 mmHg 55%
    18:00 -14°C° 0 mm 2 mps 467 mmHg 52%
    19:00 -16°C° 0 mm 3 mps 467 mmHg 49%
    20:00 -18°C° 0 mm 3 mps 466 mmHg 46%
    21:00 -18°C° 0 mm 3 mps 466 mmHg 43%
    22:00 -18°C° 0 mm 3 mps 466 mmHg 41%
    23:00 -18°C° 0 mm 3 mps 466 mmHg 39%

    23 January, Tuesday

    Time Temperature Precipitation Wind Pressure Humidity
    00:00 -18°C° 0 mm 3 mps 466 mmHg 38%
    01:00 -19°C° 0 mm 3 mps 466 mmHg 38%
    02:00 -19°C° 0 mm 3 mps 466 mmHg 37%
    03:00 -19°C° 0 mm 3 mps 465 mmHg 37%
    04:00 -19°C° 0 mm 3 mps 465 mmHg 37%
    05:00 -19°C° 0 mm 3 mps 465 mmHg 38%
    06:00 -19°C° 0 mm 3 mps 465 mmHg 39%
    07:00 -19°C° 0 mm 3 mps 466 mmHg 39%
    08:00 -19°C° 0 mm 3 mps 466 mmHg 40%
    09:00 -15°C° 0 mm 2 mps 467 mmHg 42%
    10:00 -13°C° 0 mm 2 mps 469 mmHg 43%
    11:00 -9°C° 0 mm 1 mps 470 mmHg 45%
    12:00 -8°C° 0 mm 1 mps 470 mmHg 45%
    13:00 -8°C° 0 mm 1 mps 470 mmHg 45%
    14:00 -8°C° 0 mm 1 mps 469 mmHg 44%
    15:00 -9°C° 0 mm 1 mps 468 mmHg 50%
    16:00 -11°C° 0 mm 0 mps 467 mmHg 56%
    17:00 -12°C° 0 mm 0 mps 466 mmHg 61%
    18:00 -13°C° 0 mm 1 mps 466 mmHg 61%
    19:00 -14°C° 0 mm 1 mps 466 mmHg 61%
    20:00 -17°C° 0 mm 2 mps 465 mmHg 61%
    21:00 -17°C° 0 mm 2 mps 465 mmHg 61%
    22:00 -18°C° 0 mm 2 mps 465 mmHg 60%
    23:00 -18°C° 0 mm 2 mps 465 mmHg 59%
    Show more